Weather History for Kahului, HI

Change the Weather History Date:

Sunday, March 31, 2013

  Actual Average Record
Temperature  
Mean Temperature 71 °F 74 °F  
Max Temperature 77 °F 82 °F 89 °F (1953)
Min Temperature 65 °F 65 °F 56 °F (1972)
Degree Days  
Heating Degree Days 0 0  
Month to date heating degree days 0 0  
Since 1 July heating degree days 0 0  
Cooling Degree Days 6 9  
Month to date cooling degree days 233 245  
Year to date cooling degree days 666 654  
Growing Degree Days 22 (Base 50)    
Moisture  
Dew Point 58 °F    
Average Humidity 72    
Maximum Humidity 93    
Minimum Humidity 50    
Precipitation  
Precipitation 0.01 in 0.08 in 1.18 in (1996)
Month to date precipitation 1.18 2.45  
Year to date precipitation 6.13 7.21  
Snow  
Snow 0.00 in - - ()
Month to date snowfall 0.0  
Since 1 July snowfall 0.0  
Snow Depth -    
Sea Level Pressure  
Sea Level Pressure 30.04 in    
Wind  
Wind Speed 13 mph (North)    
Max Wind Speed 20 mph    
Max Gust Speed 26 mph    
Visibility 10 miles    
Events      
T = Trace of Precipitation, MM = Missing Value Source: NWS Daily Summary

Daily Weather History Graph

Daily Weather History Graph

Search for Another Location

Airport:

Trip Planner

Search our weather history database for the weather conditions in past years. The results will help you decide how hot, cold, wet, or windy it might be!

Date:

Astronomy

Mar. 31, 2013 Rise Set
Actual Time 6:19 AM HST 6:40 PM HST
Civil Twilight 5:57 AM HST 7:02 PM HST
Nautical Twilight 5:31 AM HST 7:28 PM HST
Astronomical Twilight 5:05 AM HST 7:54 PM HST
Moon 11:27 PM HST (3/31) 9:49 AM HST (3/31)
Length of Visible Light 13h 05m
Length of Day
12h 20m
Waning Gibbous, 75% of the Moon is Illuminated
Mar 31
Waning Gibbous
Apr 2
Last Quarter
Apr 9
New
Apr 18
First Quarter
Apr 25
Full

Hourly Weather History & Observations

Time (HST) Temp. Dew Point Humidity Pressure Visibility Wind Dir Wind Speed Gust Speed Precip Events Conditions
12:54 AM 64.9 °F 63.0 °F 93% 30.03 in 10.0 mi East 6.9 mph - N/A   Scattered Clouds
1:11 AM 66.2 °F 62.6 °F 88% 30.02 in 10.0 mi East 4.6 mph - N/A   Mostly Cloudy
1:45 AM 69.8 °F 64.4 °F 83% 30.01 in 10.0 mi North 10.4 mph - N/A   Scattered Clouds
1:54 AM 69.1 °F 64.0 °F 84% 30.02 in 10.0 mi North 9.2 mph - N/A   Mostly Cloudy
2:54 AM 68.0 °F 64.9 °F 90% 30.02 in 10.0 mi North 17.3 mph - 0.01 in   Mostly Cloudy
3:54 AM 66.0 °F 64.0 °F 93% 30.03 in 10.0 mi NNE 11.5 mph - 0.00 in   Overcast
4:54 AM 69.1 °F 57.0 °F 65% 30.04 in 10.0 mi North 17.3 mph - 0.00 in   Overcast
5:54 AM 69.1 °F 57.0 °F 65% 30.05 in 10.0 mi North 16.1 mph - N/A   Mostly Cloudy
7:54 AM 70.0 °F 57.0 °F 63% 30.08 in 10.0 mi North 15.0 mph - N/A   Mostly Cloudy
8:54 AM 73.0 °F 55.9 °F 55% 30.09 in 10.0 mi North 13.8 mph - N/A   Mostly Cloudy
9:54 AM 73.9 °F 55.0 °F 52% 30.08 in 10.0 mi North 12.7 mph - N/A   Scattered Clouds
10:54 AM 75.9 °F 55.9 °F 50% 30.08 in 10.0 mi North 13.8 mph - N/A   Partly Cloudy
11:54 AM 75.9 °F 55.9 °F 50% 30.07 in 10.0 mi North 15.0 mph - N/A   Partly Cloudy
12:54 PM 77.0 °F 57.0 °F 50% 30.05 in 10.0 mi North 15.0 mph 20.7 mph N/A   Partly Cloudy
1:54 PM 77.0 °F 55.0 °F 47% 30.03 in 10.0 mi North 15.0 mph - N/A   Partly Cloudy
2:54 PM 75.9 °F 55.9 °F 50% 30.01 in 10.0 mi North 15.0 mph - N/A   Partly Cloudy
3:54 PM 75.9 °F 55.9 °F 50% 30.00 in 10.0 mi North 16.1 mph - N/A   Clear
4:54 PM 73.9 °F 55.0 °F 52% 30.00 in 10.0 mi North 15.0 mph 20.7 mph N/A   Partly Cloudy
5:54 PM 72.0 °F 55.9 °F 57% 30.00 in 10.0 mi North 11.5 mph 20.7 mph N/A   Partly Cloudy
6:54 PM 70.0 °F 57.0 °F 63% 30.01 in 10.0 mi North 10.4 mph - N/A   Clear
7:54 PM 69.1 °F 57.0 °F 65% 30.02 in 10.0 mi NW 9.2 mph - N/A   Clear
8:54 PM 69.1 °F 57.9 °F 68% 30.04 in 10.0 mi NW 12.7 mph 17.3 mph N/A   Clear
9:54 PM 69.1 °F 57.0 °F 65% 30.04 in 10.0 mi NW 9.2 mph - N/A   Clear
10:54 PM 68.0 °F 55.0 °F 63% 30.03 in 10.0 mi NW 11.5 mph - N/A   Clear
11:54 PM 68.0 °F 55.0 °F 63% 30.02 in 10.0 mi NW 8.1 mph - N/A   Clear